Weather Roundup
Issued by NWS Chicago, IL

Home | Current Version | Previous Version | Text Only | Print | Product List | Glossary Off
Versions: 1 2 3 4 5 6 7 8 9 10 11 12 13 14 15 16 17 18 19 20 21 22 23 24 25 26 27 28 29 30 31 32 33 34 35 36 37 38 39 40 41 42 43 44 45 46 47 48 49 50

000
NZUS59 KLOT 020506
HRRLOT

CHICAGO AREA WEATHER ROUNDUP
NATIONAL WEATHER SERVICE CHICAGO/ROMEOVILLE IL
1200 AM CDT THU OCT 02 2014

NOTE: "FAIR" INDICATES FEW OR NO CLOUDS BELOW 12,000 FEET WITH NO
SIGNIFICANT WEATHER AND/OR OBSTRUCTIONS TO VISIBILITY.

* THESE STATIONS ARE NOT UNDER NWS QUALITY CONTROL. THEY ALSO MAY NOT
  REPORT WEATHER SUCH AS PRECIPITATION OR FOG.

ILZ005-006-012>014-019>023-020600-
NORTHEAST ILLINOIS

CITY           SKY/WX    TMP DP  RH WIND       PRES   REMARKS
OHARE          CLOUDY    65  52  62 SE9       29.88F
MIDWAY         CLOUDY    69  53  56 SE10      29.89F
AURORA         CLOUDY    66  55  67 SE6       29.89S
LANSING*       CLOUDY    64  51  64 SE8       29.90F
JOLIET*        CLOUDY    65  55  69 SE7       29.88S
WAUKEGAN       CLOUDY    62  55  77 SE8       29.89F
DUPAGE AIRPORT CLOUDY    66  54  65 SE6       29.88F
WHEELING       CLOUDY    65  53  65 CALM      29.90F
KANKAKEE*      DRIZZLE   65  58  78 SE9       29.90S
MORRIS*        LGT RAIN  66  61  83 CALM      29.86S
LEWIS AIRPORT* CLOUDY    66  53  64 S13       29.88S
NORTHERLY IS     N/A     64  55  72 SE9         N/A
$$

WIZ051-052-058>065-066-070>072-020600-
SOUTHEAST WISCONSIN

CITY           SKY/WX    TMP DP  RH WIND       PRES   REMARKS
MILWAUKEE      CLOUDY    64  53  67 S12       29.90F
RACINE*        CLOUDY    63  54  72 S12       29.91F
BURLINGTON     CLOUDY    61  52  73 CALM      29.89F
WAUKESHA       CLOUDY    61  50  67 SE12      29.90F
WEST BEND      CLOUDY    61  52  72 SE3       29.89F
$$

INZ001>003-010>013-019-020-020600-
NORTHWEST INDIANA

CITY           SKY/WX    TMP DP  RH WIND       PRES   REMARKS
GARY*          CLOUDY    65  51  59 SE9G16    29.90F
MICHIGAN CITY* NOT AVBL
RENSSELAER*    NOT AVBL
VALPARAISO     CLOUDY    59  51  75 E6        29.93F
$$

LMZ740>746-020600-
SOUTHERN LAKE MICHIGAN

STATION/POSITION TIME  SKY/WX   TEMP WIND        PRES    VSBY
                                AIR  DIR/SP/G
                 (UTC)          (F)  (DEG/KT/KT) (MB)    (MI)
HARRISON CRIB    0500            64  140/ 13/ 17   N/A
BURNHAM HARBOR   0500            64  130/  5/ 10   N/A
CALUMET HARBOR   0400            66  140/  8/ 14 1011.4F
BURNS HARBOR     0400            65  140/ 10/ 22   N/A
MICHIGAN CITY    0500            64  120/ 12/ 17   N/A
$$

ABBREVIATIONS USED IN REMARKS
   TC - TEMPERATURE IN CELSIUS
  WCI - WIND CHILL INDEX
   HX - HEAT INDEX
  VSB - VISIBILITY
$$


USA.gov is the U.S. government's official web portal to all federal, state and local government web resources and services.